This is the latest recevied weather packets stored in our database for station/object KC0AFB. If no packets are shown the sender has not sent any weather packets the latest 10 day(s).
| Time | Temp. | Humidity | Pressure | Rain* | Wind** | Luminosity | Snow |
|---|---|---|---|---|---|---|---|
| 1777729072 | 10° C | 53% | 1014.2 hPa | 0 mm | - | 165 W/m² | - |
| 1777728769 | 10° C | 51% | 1014.4 hPa | 0 mm | - | 100 W/m² | - |
| 1777728466 | 10° C | 55% | 1014.8 hPa | 0 mm | - | 99 W/m² | - |
| 1777728163 | 9.44° C | 55% | 1015.3 hPa | 0 mm | - | 85 W/m² | - |
| 1777727860 | 8.89° C | 56% | 1015.3 hPa | 0 mm | - | 107 W/m² | - |
| 1777727557 | 8.89° C | 57% | 1015.7 hPa | 0 mm | - | 100 W/m² | - |
| 1777727254 | 8.33° C | 58% | 1015.6 hPa | 0 mm | - | 81 W/m² | - |
| 1777726952 | 8.33° C | 56% | 1015.8 hPa | 0 mm | - | 73 W/m² | - |
| 1777726648 | 8.33° C | 57% | 1016 hPa | 0 mm | - | 64 W/m² | - |
| 1777726346 | 8.33° C | 56% | 1015.7 hPa | 0 mm | - | 53 W/m² | - |
| 1777726042 | 8.33° C | 55% | 1015.5 hPa | 0 mm | - | 48 W/m² | - |
| 1777725739 | 8.33° C | 54% | 1015.7 hPa | 0 mm | - | 41 W/m² | - |
| 1777725438 | 8.33° C | 54% | 1015.4 hPa | 0 mm | - | 33 W/m² | - |
| 1777725134 | 8.33° C | 54% | 1015.1 hPa | 0 mm | - | 28 W/m² | - |
| 1777724831 | 8.33° C | 55% | 1015.4 hPa | 0 mm | - | 26 W/m² | - |
| 1777724527 | 7.78° C | 55% | 1015.6 hPa | 0 mm | - | 26 W/m² | - |
| 1777724226 | 7.78° C | 55% | 1015.8 hPa | 0 mm | - | 23 W/m² | - |
| 1777723923 | 7.78° C | 56% | 1015.5 hPa | 0 mm | - | 23 W/m² | - |
| 1777723619 | 7.78° C | 56% | 1015.7 hPa | 0 mm | - | 19 W/m² | - |
| 1777723316 | 7.78° C | 56% | 1015.8 hPa | 0 mm | - | 15 W/m² | - |
| 1777723014 | 7.78° C | 56% | 1015.7 hPa | 0 mm | - | 13 W/m² | - |
| 1777722710 | 7.78° C | 56% | 1015.9 hPa | 0 mm | - | 11 W/m² | - |
| 1777722406 | 7.22° C | 57% | 1015.9 hPa | 0 mm | - | 9 W/m² | - |
| 1777722104 | 6.67° C | 58% | 1016 hPa | 0 mm | - | 6 W/m² | - |
| 1777721801 | 6.67° C | 58% | 1015.9 hPa | 0 mm | - | 3 W/m² | - |
* Rain latest hour (hover to see other rain measurements)
** Current wind speed in m/s (hover to see current wind gust speed)